Location: Baia Mare
(47.6567°N, 23.5850°E)
Time: 13:31:04
(UTC+03:00)

ISS - Pass Details

Date: 08 July 2019
Orbit: 409 x 418 km, 51.6° (Epoch: 21 July)

Event Time Altitude Azimuth Distance (km) Brightness Sun altitude
Exits shadow 04:17:11 - 265° (W) 1,632 -1.2 -10.5°
Reaches altitude 10° 04:17:34 10° 266° (W) 1,478 -1.4 -10.4°
Maximum altitude 04:20:50 53° 345° (NNW) 512 -3.1 -10.1°
Drops below altitude 10° 04:24:05 10° 64° (ENE) 1,478 0.2 -9.7°
Sets 04:26:12 0° 69° (ENE) 2,340 1.2 -9.5°
